Showing default

BEIDOU 11, 38091

Orbit data source: Space-Track

BEIDOU 11, 38091 is a payload satellite owned by CNSA (CN) in GEO that was launched on Fri, 24 Feb 2012 UTC via a CHANG ZHENG 3C launch vehicle from the Xichang Space Center, China (XSC). Payload-class satellites include a variety of spacecraft equipped with specific instruments for various scientific and technological missions. These include communications satellites like Starlink; space stations such as the ISS; scientific satellites like the Hubble; Earth observation satellites from companies like Planet Labs, Umbra, and HawkEye 360; GPS; miniature CubeSats for education and research; and military/defense satellites.

Not visible in the next 10 days
Identifier
38091, 2012-008A
Orbit
GEO
Last TLE update
9 hours ago
Origin
Manufacturer
CAST
Mission
Operational Defense Navigation
Bus & Motor
DFH-3B, FY-25
Mass
3,060 kg wet, 1,700 kg dry
Launch date (UTC)
2012-02-24 (13 years ago)
Launch vehicle
CHANG ZHENG 3C
Launch site
Xichang Space Center, China (XSC)
Object type
Payload
Rocket body
Debris
Shape & HBR
Box + 2 Pan, 18 m
Radar Cross Section
13.998 m², Large (>1 m²)

Expand to show TLE details & history

TLE from 9 hours ago
0 BEIDOU 11
1 38091U 12008A   25128.89380834  .00000064  00000-0  00000-0 0  9993
2 38091   2.5679  71.2586 0010486 266.8982 269.2381  1.00270611 48316
Epoch: 2025-05-08T21:27Z
Definitive object data (Epoch: 2025-05-08T21:27:05.04Z)
Latitude
0.17007°
Longitude
58.55003°
Altitude
35,787.198 km
Speed
3.075 km/s
True Right ascension
16h 29m 06s
True Declination
0° 10' 12"
Sunlit
Object was in daylight at TLE epoch
Visualization TLE readout
Latitude
-1.88574°
Longitude
-165.31488°
Altitude
35,755.468 km
Speed
3.077 km/s
Apparent Right ascension
01h 40m 18s
Apparent Declination
-6° 38' 39"
Sunlit
Object is in daylight
Visualization observer readout
Local Sidereal Time
14:38:05
Azimuth
25.119° NE
Elevation
-54.291°
Doppler factor
1
Orbital elements
Apogee altitude
35,832.207 km
Perigee altitude
35,743.776 km
Semi-major axis
42,166.128 km
Eccentricity
0.0010486
Inclination
2.5679°
RAAN
71.2586°
Arg. of periapsis
266.8982°
True anomaly
269.11795°
Mean anomaly
269.2381°
Eccentric anomaly
269.17803°
Mean motion
0.25067 °/min
BSTAR
Unknown
Orbital period
1436.17 mins
Loading historical data...
38091 neighbors
Loading maneuver chart data...
Loading SW <> Apogee altitude chart data...
Loading historical data...
Loading historical data...
Loading historical data...
Loading historical data...
Loading historical data...
Loading historical data...
Loading historical data...

BEIDOU 11 Visibility forecast

Observer location: undefined°, undefined°

BEIDOU 11 is not visible in the next 10 days
Span
Click to sort rows by Start time (UTC) header in descending order
Start Az.
Max El. time (UTC)
Max El. Az.
Max El.
End time (UTC)
End Az.
|